User: anonymous   Login
Location: Unspecified
(0.0000°N, 0.0000°E)
Time: 04:47:04
(UTC+00:00)
Language:

Kiku-4 - Orbit

View from above orbital plane
View from above orbital plane
View from above satellite
View from above satellite

Ground track
Ground track

The orbit data is extracted from the following two-line orbital elements,

1 13492U 82087A   18020.63607206 -.00000109 +00000-0 +88682-5 0  9993
2 13492 044.6166 086.6274 0009953 061.2108 098.5773 13.70971596771355
Epoch (UTC): 20 January 2018 15:15:56
Eccentricity: 0.0009953
inclination: 44.6166°
perigee height: 989 km
apogee height: 1003 km
right ascension of ascending node: 86.6274°
argument of perigee: 61.2108°
revolutions per day: 13.70971596
mean anomaly at epoch: 98.5773°
orbit number at epoch: 77135

The dashed part of the orbit path shows where the satellite is in the earth's shadow,  

DLR